Temp
55 53 53 50 48 47 46 46 45 44 44 43 43 43 42 42 41 41 41 39 39 40
53 53 51 48 47 47 46 47 45 45 44 43 43 43 42 41 41 41 40 39 38 38
51 52 51 48 46 46 45 46 44 44 44 43 43 43 43 41 41 40 38 38 38 37
51 50 49 48 46 46 45 45 45 44 44 43 42 43 42 41 40 38 37 37 37 35
51 50 48 47 46 46 45 46 46 45 45 44 43 42 42 42 40 38 37 36 36 35
49 49 47 46 46 46 45 45 45 44 44 44 43 42 41 41 40 38 37 36 35 34
48 47 47 46 45 45 45 44 44 44 44 43 43 42 42 41 39 38 37 36 35 35
48 48 46 46 45 45 44 45 44 43 42 41 42 42 40 40 38 37 36 35 36 35
47 47 45 45 44 43 43 42 41 42 41 40 42 40 40 40 38 37 36 34 34 35
47 46 45 44 43 42 41 40 39 39 40 39 38 40 40 39 38 37 35 33 33 36
47 46 46 44 44 42 41 40 39 38 39 38 38 40 40 38 37 36 35 34 33 34
47 46 45 44 43 42 41 40 38 38 37 37 35 38 39 38 37 35 34 34 34 33
48 46 45 44 43 42 42 40 38 36 37 38 36 38 39 38 37 33 33 33 34 35
49 47 46 44 44 42 40 38 36 36 35 37 37 36 39 38 37 35 33 33 32 33
MSLP
1017.01 1017.83 1018.47 1019.06 1020.10 1020.72 1021.62 1022.14 1022.71 1023.39 1023.64 1023.91 1024.27 1024.68 1024.73 1025.00 1025.58 1025.89 1026.07 1026.24 1026.74 1027.13
1017.03 1017.66 1018.35 1019.05 1019.71 1020.40 1021.27 1022.02 1022.85 1023.26 1023.93 1024.32 1024.56 1024.90 1025.19 1025.58 1026.07 1026.42 1026.72 1027.05 1027.42 1027.76
1016.88 1017.44 1018.33 1019.00 1019.81 1020.55 1021.42 1021.99 1022.95 1023.54 1024.09 1024.57 1024.87 1025.29 1025.62 1026.21 1026.64 1026.97 1027.28 1027.72 1028.07 1028.49
1016.83 1017.43 1018.48 1019.09 1020.01 1020.64 1021.39 1022.13 1023.00 1023.48 1023.99 1024.50 1024.98 1025.39 1025.91 1026.47 1027.02 1027.30 1027.76 1028.23 1028.62 1029.19
1016.80 1017.50 1018.34 1019.09 1019.84 1020.69 1021.36 1022.04 1022.68 1023.68 1024.17 1024.60 1025.09 1025.50 1026.01 1026.58 1027.35 1027.52 1028.07 1028.67 1029.04 1029.59
1016.18 1017.01 1017.86 1018.94 1019.86 1020.79 1021.55 1022.32 1022.90 1023.25 1024.33 1024.86 1025.39 1025.65 1026.14 1026.74 1027.32 1027.84 1028.28 1028.72 1029.25 1029.81
1015.74 1016.57 1017.50 1018.54 1019.48 1020.52 1021.20 1022.04 1022.85 1023.20 1023.97 1024.75 1025.37 1025.70 1026.16 1026.89 1027.39 1028.09 1028.58 1029.02 1029.60 1030.02
1015.43 1016.49 1017.60 1018.58 1019.25 1020.21 1021.31 1022.15 1022.46 1023.09 1023.78 1024.65 1025.23 1025.63 1026.27 1026.91 1027.44 1028.19 1028.79 1029.34 1029.82 1030.16
1015.72 1016.58 1017.32 1018.21 1019.26 1020.29 1021.29 1022.07 1022.82 1023.51 1023.93 1024.37 1024.86 1025.73 1026.35 1026.79 1027.54 1028.25 1028.72 1029.32 1029.87 1030.07
1015.05 1016.17 1017.49 1017.53 1019.15 1020.48 1021.03 1021.80 1022.72 1023.63 1024.18 1024.61 1024.83 1025.14 1025.77 1026.49 1027.37 1028.05 1028.72 1029.23 1029.70 1030.09
1014.64 1015.49 1016.53 1017.80 1018.21 1019.80 1021.06 1021.51 1022.51 1023.09 1024.09 1024.60 1024.97 1025.40 1025.78 1026.38 1027.24 1027.97 1028.65 1029.20 1029.54 1029.91
1014.57 1015.27 1016.22 1017.12 1018.19 1019.57 1020.55 1021.64 1022.33 1023.08 1024.04 1024.57 1025.12 1025.40 1025.83 1026.27 1027.12 1027.97 1028.65 1029.20 1029.61 1029.99
1014.54 1014.99 1015.48 1016.67 1017.34 1018.74 1020.18 1020.84 1021.92 1023.00 1023.63 1024.24 1024.59 1025.04 1025.38 1025.70 1026.51 1027.57 1028.51 1029.25 1029.58 1029.79
1013.88 1014.87 1016.32 1016.58 1017.12 1018.39 1018.97 1021.06 1021.88 1023.03 1023.55 1024.10 1024.29 1024.90 1025.34 1025.53 1026.07 1026.95 1028.01 1028.74 1029.40 1029.59
Wind_Speed
11 8 8 9 8 7 5 6 6 5 6 6 7 6 7 7 6 6 7 10 7 5
10 11 10 10 9 7 7 6 6 7 7 6 7 7 7 6 7 7 7 8 7 6
11 11 10 10 10 10 8 8 8 8 8 8 7 7 8 7 6 8 6 6 8 7
10 11 10 9 9 10 9 10 9 9 9 9 9 8 8 8 7 9 9 7 8 7
11 10 11 10 10 10 11 10 11 9 9 9 9 9 10 9 8 10 9 8 8 7
13 13 12 11 11 10 11 10 9 11 10 9 9 9 8 9 9 8 8 7 7 6
13 13 13 12 13 12 11 12 10 10 10 9 9 9 10 9 9 9 7 7 6 6
13 13 12 12 13 12 11 10 11 11 9 9 9 7 10 10 10 10 9 7 6 5
13 13 14 13 12 12 11 10 9 10 11 11 7 13 14 12 10 9 9 8 6 5
14 14 12 14 13 11 12 11 9 8 9 9 7 17 19 17 9 9 8 8 7 6
16 15 14 14 14 13 11 12 11 10 9 9 6 15 18 16 10 8 7 7 7 6
13 14 15 15 15 12 12 10 10 10 9 10 6 13 17 13 9 8 7 6 6 6
12 14 17 15 17 14 11 12 9 9 10 12 11 14 19 16 9 10 7 5 5 9
13 13 12 13 13 13 13 10 9 9 7 9 10 10 16 18 10 9 8 7 6 4
Wind_Direction
162 162 160 149 148 140 147 142 141 118 110 108 102 92 89 90 87 85 82 80 74 74
167 163 158 148 142 143 133 134 133 122 117 110 104 99 97 94 94 87 82 80 75 74
160 160 155 142 143 141 137 126 134 125 126 120 111 107 107 100 93 98 82 83 85 76
159 146 149 142 144 145 135 139 139 142 136 130 127 121 115 107 107 102 97 82 89 83
155 150 150 151 150 148 145 145 144 142 136 138 137 131 129 125 122 117 109 105 100 99
158 160 157 151 145 146 144 145 146 139 146 147 146 135 121 128 125 117 118 116 111 118
163 161 157 154 150 151 152 150 152 149 148 150 149 140 136 133 122 119 112 107 109 120
162 156 151 154 152 149 153 158 153 147 145 145 147 148 143 138 130 127 118 108 112 118
162 158 158 152 150 147 147 144 144 157 157 153 151 151 140 139 138 137 134 130 119 115
158 160 163 146 146 156 153 147 149 150 159 159 150 154 148 143 145 142 142 139 139 138
163 160 155 155 153 156 161 156 162 158 162 156 156 159 151 142 141 139 143 152 151 145
166 157 158 161 157 159 159 161 163 161 155 160 155 159 152 136 139 141 146 149 146 152
173 169 168 170 164 162 172 165 155 160 171 174 164 168 159 147 144 144 148 145 158 163
172 172 183 170 167 163 152 152 156 167 167 178 172 170 165 155 155 154 153 159 168 170